owner,sensor,date,latitude,longitude,air_temperature,qcFlag 
LUMCON,ioos:station:LUMCON:105:1,2010-11-01T15:00:00Z,29.1874,-90.6654,23.4,1111122 
LUMCON,ioos:station:LUMCON:105:1,2010-11-01T16:00:00Z,29.1874,-90.6654,23.8,1111122 
LUMCON,ioos:station:LUMCON:105:1,2010-11-01T17:00:00Z,29.1874,-90.6654,24.2,1111122 
LUMCON,ioos:station:LUMCON:105:1,2010-11-01T18:00:00Z,29.1874,-90.6654,24.4,1111122 
LUMCON,ioos:station:LUMCON:105:1,2010-11-01T19:00:00Z,29.1874,-90.6654,24.6,1111122 
LUMCON,ioos:station:LUMCON:105:1,2010-11-01T21:00:00Z,29.1874,-90.6654,24.6,1111122 
LUMCON,ioos:station:LUMCON:105:1,2010-11-01T22:00:00Z,29.1874,-90.6654,24.4,1111122 
LUMCON,ioos:station:LUMCON:105:1,2010-11-01T23:00:00Z,29.1874,-90.6654,24.0,1111122 
LUMCON,ioos:station:LUMCON:105:1,2010-11-02T00:00:00Z,29.1874,-90.6654,23.7,1111122 
LUMCON,ioos:station:LUMCON:105:1,2010-11-02T01:00:00Z,29.1874,-90.6654,23.7,1111122 
LUMCON,ioos:station:LUMCON:105:1,2010-11-02T02:00:00Z,29.1874,-90.6654,23.5,1111122 
LUMCON,ioos:station:LUMCON:105:1,2010-11-02T03:00:00Z,29.1874,-90.6654,23.4,1111122 
LUMCON,ioos:station:LUMCON:105:1,2010-11-02T04:00:00Z,29.1874,-90.6654,23.1,1111122 
LUMCON,ioos:station:LUMCON:105:1,2010-11-02T05:00:00Z,29.1874,-90.6654,23.1,1111122 
LUMCON,ioos:station:LUMCON:105:1,2010-11-02T06:00:00Z,29.1874,-90.6654,23.6,1111122 
LUMCON,ioos:station:LUMCON:105:1,2010-11-02T07:00:00Z,29.1874,-90.6654,23.6,1111122 
LUMCON,ioos:station:LUMCON:105:1,2010-11-02T08:00:00Z,29.1874,-90.6654,23.4,1111122 
LUMCON,ioos:station:LUMCON:105:1,2010-11-02T09:00:00Z,29.1874,-90.6654,23.4,1111122 
LUMCON,ioos:station:LUMCON:105:1,2010-11-02T10:00:00Z,29.1874,-90.6654,23.3,1111122 
LUMCON,ioos:station:LUMCON:105:1,2010-11-02T11:00:00Z,29.1874,-90.6654,23.2,1111122 
LUMCON,ioos:station:LUMCON:105:1,2010-11-02T12:00:00Z,29.1874,-90.6654,23.1,1111122 
LUMCON,ioos:station:LUMCON:105:1,2010-11-02T13:00:00Z,29.1874,-90.6654,23.2,1111122 
LUMCON,ioos:station:LUMCON:105:1,2010-11-02T14:00:00Z,29.1874,-90.6654,23.5,1111122 
LUMCON,ioos:station:LUMCON:105:1,2010-11-02T15:00:00Z,29.1874,-90.6654,23.6,1111122 
LUMCON,ioos:station:LUMCON:105:1,2010-11-02T16:00:00Z,29.1874,-90.6654,23.4,1111122 
LUMCON,ioos:station:LUMCON:105:1,2010-11-02T17:00:00Z,29.1874,-90.6654,20.0,1111122 
LUMCON,ioos:station:LUMCON:105:1,2010-11-02T18:00:00Z,29.1874,-90.6654,18.4,1111122 
LUMCON,ioos:station:LUMCON:105:1,2010-11-02T19:00:00Z,29.1874,-90.6654,20.1,1111122 
LUMCON,ioos:station:LUMCON:105:1,2010-11-02T20:00:00Z,29.1874,-90.6654,20.4,1111122 
LUMCON,ioos:station:LUMCON:105:1,2010-11-02T21:00:00Z,29.1874,-90.6654,20.6,1111122 
LUMCON,ioos:station:LUMCON:105:1,2010-11-02T22:00:00Z,29.1874,-90.6654,20.9,1111122 
LUMCON,ioos:station:LUMCON:105:1,2010-11-02T23:00:00Z,29.1874,-90.6654,21.8,1111122 
LUMCON,ioos:station:LUMCON:105:1,2010-11-03T00:00:00Z,29.1874,-90.6654,22.1,1111122 
LUMCON,ioos:station:LUMCON:105:1,2010-11-03T01:00:00Z,29.1874,-90.6654,22.3,1111122 
LUMCON,ioos:station:LUMCON:105:1,2010-11-03T02:00:00Z,29.1874,-90.6654,22.0,1111122 
LUMCON,ioos:station:LUMCON:105:1,2010-11-03T03:00:00Z,29.1874,-90.6654,21.8,1111122 
LUMCON,ioos:station:LUMCON:105:1,2010-11-03T04:00:00Z,29.1874,-90.6654,22.1,1111122 
LUMCON,ioos:station:LUMCON:105:1,2010-11-03T05:00:00Z,29.1874,-90.6654,22.3,1111122 
LUMCON,ioos:station:LUMCON:105:1,2010-11-03T06:00:00Z,29.1874,-90.6654,22.5,1111122 
LUMCON,ioos:station:LUMCON:105:1,2010-11-03T07:00:00Z,29.1874,-90.6654,22.1,1111122 
LUMCON,ioos:station:LUMCON:105:1,2010-11-03T08:00:00Z,29.1874,-90.6654,19.6,1111122 
LUMCON,ioos:station:LUMCON:105:1,2010-11-03T09:00:00Z,29.1874,-90.6654,19.3,1111122 
LUMCON,ioos:station:LUMCON:105:1,2010-11-03T10:00:00Z,29.1874,-90.6654,19.1,1111122 
LUMCON,ioos:station:LUMCON:105:1,2010-11-03T11:00:00Z,29.1874,-90.6654,19.0,1111122 
LUMCON,ioos:station:LUMCON:105:1,2010-11-03T12:00:00Z,29.1874,-90.6654,18.5,1111122 
LUMCON,ioos:station:LUMCON:105:1,2010-11-03T13:00:00Z,29.1874,-90.6654,18.1,1111122 
LUMCON,ioos:station:LUMCON:105:1,2010-11-03T14:00:00Z,29.1874,-90.6654,18.7,1111122 
LUMCON,ioos:station:LUMCON:105:1,2010-11-03T15:00:00Z,29.1874,-90.6654,19.1,1111122 
LUMCON,ioos:station:LUMCON:105:1,2010-11-03T16:00:00Z,29.1874,-90.6654,19.2,1111122 
LUMCON,ioos:station:LUMCON:105:1,2010-11-03T17:00:00Z,29.1874,-90.6654,20.2,1111122 
LUMCON,ioos:station:LUMCON:105:1,2010-11-03T18:00:00Z,29.1874,-90.6654,21.5,1111122 
LUMCON,ioos:station:LUMCON:105:1,2010-11-03T19:00:00Z,29.1874,-90.6654,22.7,1111122 
LUMCON,ioos:station:LUMCON:105:1,2010-11-03T20:00:00Z,29.1874,-90.6654,23.4,1111122 
LUMCON,ioos:station:LUMCON:105:1,2010-11-03T21:00:00Z,29.1874,-90.6654,23.2,1111122 
LUMCON,ioos:station:LUMCON:105:1,2010-11-03T22:00:00Z,29.1874,-90.6654,23.2,1111122 
LUMCON,ioos:station:LUMCON:105:1,2010-11-03T23:00:00Z,29.1874,-90.6654,22.2,1111122 
LUMCON,ioos:station:LUMCON:105:1,2010-11-04T00:00:00Z,29.1874,-90.6654,22.3,1111122 
LUMCON,ioos:station:LUMCON:105:1,2010-11-04T01:00:00Z,29.1874,-90.6654,21.7,1111122 
LUMCON,ioos:station:LUMCON:105:1,2010-11-04T02:00:00Z,29.1874,-90.6654,20.8,1111122 
LUMCON,ioos:station:LUMCON:105:1,2010-11-04T03:00:00Z,29.1874,-90.6654,20.2,1111122 
LUMCON,ioos:station:LUMCON:105:1,2010-11-04T04:00:00Z,29.1874,-90.6654,20.0,1111122 
LUMCON,ioos:station:LUMCON:105:1,2010-11-04T05:00:00Z,29.1874,-90.6654,19.0,1111122 
LUMCON,ioos:station:LUMCON:105:1,2010-11-04T06:00:00Z,29.1874,-90.6654,19.0,1111122 
LUMCON,ioos:station:LUMCON:105:1,2010-11-04T07:00:00Z,29.1874,-90.6654,18.7,1111122 
LUMCON,ioos:station:LUMCON:105:1,2010-11-04T14:00:00Z,29.1874,-90.6654,15.8,1111122 
LUMCON,ioos:station:LUMCON:105:1,2010-11-04T15:00:00Z,29.1874,-90.6654,16.2,1111122 
LUMCON,ioos:station:LUMCON:105:1,2010-11-04T16:00:00Z,29.1874,-90.6654,17.1,1111122 
LUMCON,ioos:station:LUMCON:105:1,2010-11-04T17:00:00Z,29.1874,-90.6654,17.8,1111122 
LUMCON,ioos:station:LUMCON:105:1,2010-11-04T18:00:00Z,29.1874,-90.6654,18.4,1111122 
LUMCON,ioos:station:LUMCON:105:1,2010-11-04T19:00:00Z,29.1874,-90.6654,18.8,1111122 
LUMCON,ioos:station:LUMCON:105:1,2010-11-04T20:00:00Z,29.1874,-90.6654,18.9,1111122 
LUMCON,ioos:station:LUMCON:105:1,2010-11-04T21:00:00Z,29.1874,-90.6654,18.9,1111122 
LUMCON,ioos:station:LUMCON:105:1,2010-11-04T22:00:00Z,29.1874,-90.6654,18.9,1111122 
LUMCON,ioos:station:LUMCON:105:1,2010-11-04T23:00:00Z,29.1874,-90.6654,17.9,1111122 
LUMCON,ioos:station:LUMCON:105:1,2010-11-05T00:00:00Z,29.1874,-90.6654,16.6,1111122 
LUMCON,ioos:station:LUMCON:105:1,2010-11-05T01:00:00Z,29.1874,-90.6654,15.5,1111122 
LUMCON,ioos:station:LUMCON:105:1,2010-11-05T02:00:00Z,29.1874,-90.6654,14.9,1111122 
LUMCON,ioos:station:LUMCON:105:1,2010-11-05T03:00:00Z,29.1874,-90.6654,14.4,1111122 
LUMCON,ioos:station:LUMCON:105:1,2010-11-05T04:00:00Z,29.1874,-90.6654,13.6,1111122 
LUMCON,ioos:station:LUMCON:105:1,2010-11-05T05:00:00Z,29.1874,-90.6654,12.9,1111122 
LUMCON,ioos:station:LUMCON:105:1,2010-11-05T06:00:00Z,29.1874,-90.6654,12.3,1111122 
LUMCON,ioos:station:LUMCON:105:1,2010-11-05T07:00:00Z,29.1874,-90.6654,11.9,1111122 
LUMCON,ioos:station:LUMCON:105:1,2010-11-05T08:00:00Z,29.1874,-90.6654,11.6,1111122 
LUMCON,ioos:station:LUMCON:105:1,2010-11-05T09:00:00Z,29.1874,-90.6654,11.1,1111122 
LUMCON,ioos:station:LUMCON:105:1,2010-11-05T10:00:00Z,29.1874,-90.6654,11.1,1111122 
LUMCON,ioos:station:LUMCON:105:1,2010-11-05T11:00:00Z,29.1874,-90.6654,11.0,1111122 
LUMCON,ioos:station:LUMCON:105:1,2010-11-05T12:00:00Z,29.1874,-90.6654,10.3,11111222 
LUMCON,ioos:station:LUMCON:105:1,2010-11-05T13:00:00Z,29.1874,-90.6654,10.1,11111222 
LUMCON,ioos:station:LUMCON:105:1,2010-11-05T14:00:00Z,29.1874,-90.6654,10.9,1111122 
LUMCON,ioos:station:LUMCON:105:1,2010-11-05T15:00:00Z,29.1874,-90.6654,12.1,1111122 
LUMCON,ioos:station:LUMCON:105:1,2010-11-05T16:00:00Z,29.1874,-90.6654,12.9,1111122 
LUMCON,ioos:station:LUMCON:105:1,2010-11-05T17:00:00Z,29.1874,-90.6654,13.7,1111122 
LUMCON,ioos:station:LUMCON:105:1,2010-11-05T18:00:00Z,29.1874,-90.6654,14.2,1111122 
LUMCON,ioos:station:LUMCON:105:1,2010-11-05T19:00:00Z,29.1874,-90.6654,14.8,1111122 
LUMCON,ioos:station:LUMCON:105:1,2010-11-05T20:00:00Z,29.1874,-90.6654,15.1,1111122 
LUMCON,ioos:station:LUMCON:105:1,2010-11-05T21:00:00Z,29.1874,-90.6654,15.3,1111122 
LUMCON,ioos:station:LUMCON:105:1,2010-11-05T22:00:00Z,29.1874,-90.6654,15.3,1111122 
LUMCON,ioos:station:LUMCON:105:1,2010-11-05T23:00:00Z,29.1874,-90.6654,14.6,1111122 
LUMCON,ioos:station:LUMCON:105:1,2010-11-06T00:00:00Z,29.1874,-90.6654,13.4,1111122 
LUMCON,ioos:station:LUMCON:105:1,2010-11-06T01:00:00Z,29.1874,-90.6654,12.5,1111122 
LUMCON,ioos:station:LUMCON:105:1,2010-11-06T02:00:00Z,29.1874,-90.6654,11.8,1111122 
LUMCON,ioos:station:LUMCON:105:1,2010-11-06T03:00:00Z,29.1874,-90.6654,11.3,1111122 
LUMCON,ioos:station:LUMCON:105:1,2010-11-06T04:00:00Z,29.1874,-90.6654,10.8,1111122 
LUMCON,ioos:station:LUMCON:105:1,2010-11-06T05:00:00Z,29.1874,-90.6654,10.2,11111222 
LUMCON,ioos:station:LUMCON:105:1,2010-11-06T06:00:00Z,29.1874,-90.6654,9.9,11111222 
LUMCON,ioos:station:LUMCON:105:1,2010-11-06T07:00:00Z,29.1874,-90.6654,9.4,11111222 
LUMCON,ioos:station:LUMCON:105:1,2010-11-06T08:00:00Z,29.1874,-90.6654,9.1,11111222 
LUMCON,ioos:station:LUMCON:105:1,2010-11-06T09:00:00Z,29.1874,-90.6654,8.7,11111222 
LUMCON,ioos:station:LUMCON:105:1,2010-11-06T10:00:00Z,29.1874,-90.6654,8.7,11111222 
LUMCON,ioos:station:LUMCON:105:1,2010-11-06T11:00:00Z,29.1874,-90.6654,8.5,11111222 
LUMCON,ioos:station:LUMCON:105:1,2010-11-06T12:00:00Z,29.1874,-90.6654,8.1,11111222 
LUMCON,ioos:station:LUMCON:105:1,2010-11-06T13:00:00Z,29.1874,-90.6654,8.2,11111222 
LUMCON,ioos:station:LUMCON:105:1,2010-11-06T14:00:00Z,29.1874,-90.6654,9.5,11111222 
LUMCON,ioos:station:LUMCON:105:1,2010-11-06T15:00:00Z,29.1874,-90.6654,11.3,1111122 
LUMCON,ioos:station:LUMCON:105:1,2010-11-06T16:00:00Z,29.1874,-90.6654,12.2,1111122 
LUMCON,ioos:station:LUMCON:105:1,2010-11-06T17:00:00Z,29.1874,-90.6654,13.0,1111122 
LUMCON,ioos:station:LUMCON:105:1,2010-11-06T18:00:00Z,29.1874,-90.6654,13.9,1111122 
LUMCON,ioos:station:LUMCON:105:1,2010-11-06T19:00:00Z,29.1874,-90.6654,14.8,1111122 
LUMCON,ioos:station:LUMCON:105:1,2010-11-06T20:00:00Z,29.1874,-90.6654,15.5,1111122 
LUMCON,ioos:station:LUMCON:105:1,2010-11-06T21:00:00Z,29.1874,-90.6654,16.2,1111122 
LUMCON,ioos:station:LUMCON:105:1,2010-11-06T22:00:00Z,29.1874,-90.6654,16.6,1111122 
LUMCON,ioos:station:LUMCON:105:1,2010-11-06T23:00:00Z,29.1874,-90.6654,16.1,1111122 
LUMCON,ioos:station:LUMCON:105:1,2010-11-07T00:00:00Z,29.1874,-90.6654,14.8,1111122 
LUMCON,ioos:station:LUMCON:105:1,2010-11-07T01:00:00Z,29.1874,-90.6654,14.5,1111122 
LUMCON,ioos:station:LUMCON:105:1,2010-11-07T02:00:00Z,29.1874,-90.6654,14.0,1111122 
LUMCON,ioos:station:LUMCON:105:1,2010-11-07T03:00:00Z,29.1874,-90.6654,13.5,1111122 
LUMCON,ioos:station:LUMCON:105:1,2010-11-07T04:00:00Z,29.1874,-90.6654,13.3,1111122 
LUMCON,ioos:station:LUMCON:105:1,2010-11-07T05:00:00Z,29.1874,-90.6654,12.6,1111122 
LUMCON,ioos:station:LUMCON:105:1,2010-11-07T06:00:00Z,29.1874,-90.6654,12.2,1111122 
LUMCON,ioos:station:LUMCON:105:1,2010-11-07T08:00:00Z,29.1874,-90.6654,12.0,1111122 
LUMCON,ioos:station:LUMCON:105:1,2010-11-07T09:00:00Z,29.1874,-90.6654,11.7,1111122 
LUMCON,ioos:station:LUMCON:105:1,2010-11-07T10:00:00Z,29.1874,-90.6654,11.2,1111122 
LUMCON,ioos:station:LUMCON:105:1,2010-11-07T11:00:00Z,29.1874,-90.6654,10.3,11111222 
LUMCON,ioos:station:LUMCON:105:1,2010-11-07T12:00:00Z,29.1874,-90.6654,10.2,11111222 
LUMCON,ioos:station:LUMCON:105:1,2010-11-07T13:00:00Z,29.1874,-90.6654,10.6,11111222 
LUMCON,ioos:station:LUMCON:105:1,2010-11-07T14:00:00Z,29.1874,-90.6654,11.5,1111122 
LUMCON,ioos:station:LUMCON:105:1,2010-11-07T15:00:00Z,29.1874,-90.6654,12.3,1111122 
LUMCON,ioos:station:LUMCON:105:1,2010-11-07T16:00:00Z,29.1874,-90.6654,13.0,11111222 
LUMCON,ioos:station:LUMCON:105:1,2010-11-07T17:00:00Z,29.1874,-90.6654,13.8,1111122 
LUMCON,ioos:station:LUMCON:105:1,2010-11-07T18:00:00Z,29.1874,-90.6654,14.2,1111122 
LUMCON,ioos:station:LUMCON:105:1,2010-11-07T19:00:00Z,29.1874,-90.6654,14.6,1111122 
LUMCON,ioos:station:LUMCON:105:1,2010-11-07T20:00:00Z,29.1874,-90.6654,15.2,1111122 
LUMCON,ioos:station:LUMCON:105:1,2010-11-07T21:00:00Z,29.1874,-90.6654,15.4,1111122 
LUMCON,ioos:station:LUMCON:105:1,2010-11-07T22:00:00Z,29.1874,-90.6654,15.6,1111122 
LUMCON,ioos:station:LUMCON:105:1,2010-11-07T23:00:00Z,29.1874,-90.6654,15.0,1111122 
LUMCON,ioos:station:LUMCON:105:1,2010-11-08T00:00:00Z,29.1874,-90.6654,14.2,1111122 
LUMCON,ioos:station:LUMCON:105:1,2010-11-08T01:00:00Z,29.1874,-90.6654,13.9,1111122 
LUMCON,ioos:station:LUMCON:105:1,2010-11-08T02:00:00Z,29.1874,-90.6654,13.5,1111122 
LUMCON,ioos:station:LUMCON:105:1,2010-11-08T03:00:00Z,29.1874,-90.6654,13.4,1111122 
LUMCON,ioos:station:LUMCON:105:1,2010-11-08T04:00:00Z,29.1874,-90.6654,13.5,1111122 
LUMCON,ioos:station:LUMCON:105:1,2010-11-08T05:00:00Z,29.1874,-90.6654,13.0,1111122 
LUMCON,ioos:station:LUMCON:105:1,2010-11-08T06:00:00Z,29.1874,-90.6654,13.4,1111122 
LUMCON,ioos:station:LUMCON:105:1,2010-11-08T07:00:00Z,29.1874,-90.6654,12.3,1111122 
LUMCON,ioos:station:LUMCON:105:1,2010-11-08T08:00:00Z,29.1874,-90.6654,11.8,1111122 
LUMCON,ioos:station:LUMCON:105:1,2010-11-08T09:00:00Z,29.1874,-90.6654,12.0,1111122 
LUMCON,ioos:station:LUMCON:105:1,2010-11-08T10:00:00Z,29.1874,-90.6654,11.0,1111122 
LUMCON,ioos:station:LUMCON:105:1,2010-11-08T11:00:00Z,29.1874,-90.6654,11.2,1111122 
LUMCON,ioos:station:LUMCON:105:1,2010-11-08T12:00:00Z,29.1874,-90.6654,10.2,11111222 
LUMCON,ioos:station:LUMCON:105:1,2010-11-08T13:00:00Z,29.1874,-90.6654,10.8,1111122 
LUMCON,ioos:station:LUMCON:105:1,2010-11-08T14:00:00Z,29.1874,-90.6654,11.9,1111122 
LUMCON,ioos:station:LUMCON:105:1,2010-11-08T15:00:00Z,29.1874,-90.6654,13.6,1111122 
LUMCON,ioos:station:LUMCON:105:1,2010-11-08T16:00:00Z,29.1874,-90.6654,15.1,1111122 
LUMCON,ioos:station:LUMCON:105:1,2010-11-08T17:00:00Z,29.1874,-90.6654,16.5,1111122 
LUMCON,ioos:station:LUMCON:105:1,2010-11-08T18:00:00Z,29.1874,-90.6654,17.4,1111122 
LUMCON,ioos:station:LUMCON:105:1,2010-11-08T19:00:00Z,29.1874,-90.6654,17.6,11111222 
LUMCON,ioos:station:LUMCON:105:1,2010-11-08T22:00:00Z,29.1874,-90.6654,18.1,1111122 
LUMCON,ioos:station:LUMCON:105:1,2010-11-08T23:00:00Z,29.1874,-90.6654,17.5,1111122 
LUMCON,ioos:station:LUMCON:105:1,2010-11-09T00:00:00Z,29.1874,-90.6654,16.9,1111122 
LUMCON,ioos:station:LUMCON:105:1,2010-11-09T01:00:00Z,29.1874,-90.6654,16.8,1111122 
LUMCON,ioos:station:LUMCON:105:1,2010-11-09T02:00:00Z,29.1874,-90.6654,16.8,1111122 
LUMCON,ioos:station:LUMCON:105:1,2010-11-09T03:00:00Z,29.1874,-90.6654,16.9,1111122 
LUMCON,ioos:station:LUMCON:105:1,2010-11-09T04:00:00Z,29.1874,-90.6654,17.3,1111122 
LUMCON,ioos:station:LUMCON:105:1,2010-11-09T05:00:00Z,29.1874,-90.6654,17.0,1111122 
LUMCON,ioos:station:LUMCON:105:1,2010-11-09T06:00:00Z,29.1874,-90.6654,16.5,1111122 
LUMCON,ioos:station:LUMCON:105:1,2010-11-09T07:00:00Z,29.1874,-90.6654,16.2,1111122 
LUMCON,ioos:station:LUMCON:105:1,2010-11-09T08:00:00Z,29.1874,-90.6654,15.0,1111122 
LUMCON,ioos:station:LUMCON:105:1,2010-11-09T09:00:00Z,29.1874,-90.6654,14.8,1111122 
LUMCON,ioos:station:LUMCON:105:1,2010-11-09T10:00:00Z,29.1874,-90.6654,15.3,1111122 
LUMCON,ioos:station:LUMCON:105:1,2010-11-09T11:00:00Z,29.1874,-90.6654,15.0,1111122 
LUMCON,ioos:station:LUMCON:105:1,2010-11-09T12:00:00Z,29.1874,-90.6654,16.0,1111122 
LUMCON,ioos:station:LUMCON:105:1,2010-11-09T13:00:00Z,29.1874,-90.6654,16.3,1111122 
LUMCON,ioos:station:LUMCON:105:1,2010-11-09T14:00:00Z,29.1874,-90.6654,17.3,1111122 
LUMCON,ioos:station:LUMCON:105:1,2010-11-09T15:00:00Z,29.1874,-90.6654,17.9,1111122 
LUMCON,ioos:station:LUMCON:105:1,2010-11-09T16:00:00Z,29.1874,-90.6654,17.0,1111122 
LUMCON,ioos:station:LUMCON:105:1,2010-11-09T17:00:00Z,29.1874,-90.6654,17.8,1111122 
LUMCON,ioos:station:LUMCON:105:1,2010-11-09T18:00:00Z,29.1874,-90.6654,18.5,1111122 
LUMCON,ioos:station:LUMCON:105:1,2010-11-09T19:00:00Z,29.1874,-90.6654,19.0,1111122 
LUMCON,ioos:station:LUMCON:105:1,2010-11-09T20:00:00Z,29.1874,-90.6654,19.2,1111122 
LUMCON,ioos:station:LUMCON:105:1,2010-11-09T21:00:00Z,29.1874,-90.6654,19.4,1111122 
LUMCON,ioos:station:LUMCON:105:1,2010-11-09T22:00:00Z,29.1874,-90.6654,19.5,1111122 
LUMCON,ioos:station:LUMCON:105:1,2010-11-09T23:00:00Z,29.1874,-90.6654,19.1,1111122 
LUMCON,ioos:station:LUMCON:105:1,2010-11-10T00:00:00Z,29.1874,-90.6654,18.6,1111122 
LUMCON,ioos:station:LUMCON:105:1,2010-11-10T01:00:00Z,29.1874,-90.6654,18.3,1111122 
LUMCON,ioos:station:LUMCON:105:1,2010-11-10T02:00:00Z,29.1874,-90.6654,18.1,1111122 
LUMCON,ioos:station:LUMCON:105:1,2010-11-10T03:00:00Z,29.1874,-90.6654,18.1,1111122 
LUMCON,ioos:station:LUMCON:105:1,2010-11-10T04:00:00Z,29.1874,-90.6654,17.8,1111122 
LUMCON,ioos:station:LUMCON:105:1,2010-11-10T05:00:00Z,29.1874,-90.6654,17.8,1111122 
LUMCON,ioos:station:LUMCON:105:1,2010-11-10T06:00:00Z,29.1874,-90.6654,17.5,1111122 
LUMCON,ioos:station:LUMCON:105:1,2010-11-10T07:00:00Z,29.1874,-90.6654,17.3,1111122 
LUMCON,ioos:station:LUMCON:105:1,2010-11-10T08:00:00Z,29.1874,-90.6654,17.1,1111122 
LUMCON,ioos:station:LUMCON:105:1,2010-11-10T09:00:00Z,29.1874,-90.6654,16.7,1111122 
LUMCON,ioos:station:LUMCON:105:1,2010-11-10T10:00:00Z,29.1874,-90.6654,16.4,1111122 
LUMCON,ioos:station:LUMCON:105:1,2010-11-10T11:00:00Z,29.1874,-90.6654,16.0,1111122 
LUMCON,ioos:station:LUMCON:105:1,2010-11-10T12:00:00Z,29.1874,-90.6654,15.8,1111122 
LUMCON,ioos:station:LUMCON:105:1,2010-11-10T13:00:00Z,29.1874,-90.6654,15.8,1111122 
LUMCON,ioos:station:LUMCON:105:1,2010-11-10T14:00:00Z,29.1874,-90.6654,17.3,1111122 
LUMCON,ioos:station:LUMCON:105:1,2010-11-10T15:00:00Z,29.1874,-90.6654,17.7,1111122 
LUMCON,ioos:station:LUMCON:105:1,2010-11-10T16:00:00Z,29.1874,-90.6654,18.3,1111122 
LUMCON,ioos:station:LUMCON:105:1,2010-11-10T17:00:00Z,29.1874,-90.6654,19.3,1111122 
LUMCON,ioos:station:LUMCON:105:1,2010-11-10T18:00:00Z,29.1874,-90.6654,19.9,1111122 
LUMCON,ioos:station:LUMCON:105:1,2010-11-10T19:00:00Z,29.1874,-90.6654,20.2,1111122 
LUMCON,ioos:station:LUMCON:105:1,2010-11-10T20:00:00Z,29.1874,-90.6654,20.5,1111122 
LUMCON,ioos:station:LUMCON:105:1,2010-11-10T21:00:00Z,29.1874,-90.6654,20.5,1111122 
LUMCON,ioos:station:LUMCON:105:1,2010-11-10T22:00:00Z,29.1874,-90.6654,20.5,1111122 
LUMCON,ioos:station:LUMCON:105:1,2010-11-10T23:00:00Z,29.1874,-90.6654,20.1,1111122 
LUMCON,ioos:station:LUMCON:105:1,2010-11-11T00:00:00Z,29.1874,-90.6654,19.9,1111122 
LUMCON,ioos:station:LUMCON:105:1,2010-11-11T01:00:00Z,29.1874,-90.6654,19.8,1111122 
LUMCON,ioos:station:LUMCON:105:1,2010-11-11T02:00:00Z,29.1874,-90.6654,19.4,1111122 
LUMCON,ioos:station:LUMCON:105:1,2010-11-11T03:00:00Z,29.1874,-90.6654,19.0,1111122 
LUMCON,ioos:station:LUMCON:105:1,2010-11-11T04:00:00Z,29.1874,-90.6654,18.7,1111122 
LUMCON,ioos:station:LUMCON:105:1,2010-11-11T05:00:00Z,29.1874,-90.6654,18.5,1111122 
LUMCON,ioos:station:LUMCON:105:1,2010-11-11T06:00:00Z,29.1874,-90.6654,18.3,1111122 
LUMCON,ioos:station:LUMCON:105:1,2010-11-11T07:00:00Z,29.1874,-90.6654,18.1,1111122 
LUMCON,ioos:station:LUMCON:105:1,2010-11-11T08:00:00Z,29.1874,-90.6654,18.1,1111122 
LUMCON,ioos:station:LUMCON:105:1,2010-11-11T09:00:00Z,29.1874,-90.6654,18.0,1111122 
LUMCON,ioos:station:LUMCON:105:1,2010-11-11T10:00:00Z,29.1874,-90.6654,18.0,1111122 
LUMCON,ioos:station:LUMCON:105:1,2010-11-11T11:00:00Z,29.1874,-90.6654,17.8,1111122 
LUMCON,ioos:station:LUMCON:105:1,2010-11-11T12:00:00Z,29.1874,-90.6654,17.4,1111122 
LUMCON,ioos:station:LUMCON:105:1,2010-11-11T13:00:00Z,29.1874,-90.6654,17.6,1111122 
LUMCON,ioos:station:LUMCON:105:1,2010-11-11T14:00:00Z,29.1874,-90.6654,18.4,1111122 
LUMCON,ioos:station:LUMCON:105:1,2010-11-11T15:00:00Z,29.1874,-90.6654,18.7,1111122 
LUMCON,ioos:station:LUMCON:105:1,2010-11-11T17:00:00Z,29.1874,-90.6654,19.7,1111122 
LUMCON,ioos:station:LUMCON:105:1,2010-11-11T18:00:00Z,29.1874,-90.6654,19.9,1111122 
LUMCON,ioos:station:LUMCON:105:1,2010-11-11T19:00:00Z,29.1874,-90.6654,20.0,1111122 
LUMCON,ioos:station:LUMCON:105:1,2010-11-11T20:00:00Z,29.1874,-90.6654,20.5,1111122 
LUMCON,ioos:station:LUMCON:105:1,2010-11-11T21:00:00Z,29.1874,-90.6654,20.7,11111222 
LUMCON,ioos:station:LUMCON:105:1,2010-11-11T22:00:00Z,29.1874,-90.6654,21.2,1111122 
LUMCON,ioos:station:LUMCON:105:1,2010-11-11T23:00:00Z,29.1874,-90.6654,20.6,1111122 
LUMCON,ioos:station:LUMCON:105:1,2010-11-12T00:00:00Z,29.1874,-90.6654,20.1,1111122 
LUMCON,ioos:station:LUMCON:105:1,2010-11-12T01:00:00Z,29.1874,-90.6654,19.6,1111122 
LUMCON,ioos:station:LUMCON:105:1,2010-11-12T02:00:00Z,29.1874,-90.6654,19.1,1111122 
LUMCON,ioos:station:LUMCON:105:1,2010-11-12T03:00:00Z,29.1874,-90.6654,18.9,1111122 
LUMCON,ioos:station:LUMCON:105:1,2010-11-12T04:00:00Z,29.1874,-90.6654,18.7,1111122 
LUMCON,ioos:station:LUMCON:105:1,2010-11-12T05:00:00Z,29.1874,-90.6654,17.8,1111122 
LUMCON,ioos:station:LUMCON:105:1,2010-11-12T06:00:00Z,29.1874,-90.6654,17.2,1111122 
LUMCON,ioos:station:LUMCON:105:1,2010-11-12T07:00:00Z,29.1874,-90.6654,17.4,1111122 
LUMCON,ioos:station:LUMCON:105:1,2010-11-12T08:00:00Z,29.1874,-90.6654,17.2,1111122 
LUMCON,ioos:station:LUMCON:105:1,2010-11-12T09:00:00Z,29.1874,-90.6654,16.9,1111122 
LUMCON,ioos:station:LUMCON:105:1,2010-11-12T10:00:00Z,29.1874,-90.6654,16.5,1111122 
LUMCON,ioos:station:LUMCON:105:1,2010-11-12T11:00:00Z,29.1874,-90.6654,16.0,1111122 
LUMCON,ioos:station:LUMCON:105:1,2010-11-12T12:00:00Z,29.1874,-90.6654,16.5,1111122 
LUMCON,ioos:station:LUMCON:105:1,2010-11-12T13:00:00Z,29.1874,-90.6654,17.0,1111122 
LUMCON,ioos:station:LUMCON:105:1,2010-11-12T14:00:00Z,29.1874,-90.6654,18.1,1111122 
LUMCON,ioos:station:LUMCON:105:1,2010-11-12T15:00:00Z,29.1874,-90.6654,19.2,1111122 
LUMCON,ioos:station:LUMCON:105:1,2010-11-12T16:00:00Z,29.1874,-90.6654,20.3,1111122 
LUMCON,ioos:station:LUMCON:105:1,2010-11-12T17:00:00Z,29.1874,-90.6654,21.1,1111122 
LUMCON,ioos:station:LUMCON:105:1,2010-11-12T18:00:00Z,29.1874,-90.6654,21.6,1111122 
LUMCON,ioos:station:LUMCON:105:1,2010-11-12T19:00:00Z,29.1874,-90.6654,21.9,1111122 
LUMCON,ioos:station:LUMCON:105:1,2010-11-12T20:00:00Z,29.1874,-90.6654,22.0,1111122 
LUMCON,ioos:station:LUMCON:105:1,2010-11-12T21:00:00Z,29.1874,-90.6654,22.1,11111222 
LUMCON,ioos:station:LUMCON:105:1,2010-11-12T22:00:00Z,29.1874,-90.6654,22.1,1111122 
LUMCON,ioos:station:LUMCON:105:1,2010-11-12T23:00:00Z,29.1874,-90.6654,21.6,1111122 
LUMCON,ioos:station:LUMCON:105:1,2010-11-13T00:00:00Z,29.1874,-90.6654,21.0,1111122 
LUMCON,ioos:station:LUMCON:105:1,2010-11-13T01:00:00Z,29.1874,-90.6654,20.6,1111122 
LUMCON,ioos:station:LUMCON:105:1,2010-11-13T02:00:00Z,29.1874,-90.6654,20.7,1111122 
LUMCON,ioos:station:LUMCON:105:1,2010-11-13T03:00:00Z,29.1874,-90.6654,20.5,1111122 
LUMCON,ioos:station:LUMCON:105:1,2010-11-13T04:00:00Z,29.1874,-90.6654,20.3,1111122 
LUMCON,ioos:station:LUMCON:105:1,2010-11-13T05:00:00Z,29.1874,-90.6654,20.1,1111122 
LUMCON,ioos:station:LUMCON:105:1,2010-11-13T06:00:00Z,29.1874,-90.6654,19.9,1111122 
LUMCON,ioos:station:LUMCON:105:1,2010-11-13T07:00:00Z,29.1874,-90.6654,20.0,1111122 
LUMCON,ioos:station:LUMCON:105:1,2010-11-13T08:00:00Z,29.1874,-90.6654,20.1,1111122 
LUMCON,ioos:station:LUMCON:105:1,2010-11-13T09:00:00Z,29.1874,-90.6654,20.1,11111222 
LUMCON,ioos:station:LUMCON:105:1,2010-11-13T10:00:00Z,29.1874,-90.6654,20.1,1111122 
LUMCON,ioos:station:LUMCON:105:1,2010-11-13T12:00:00Z,29.1874,-90.6654,19.7,1111122 
LUMCON,ioos:station:LUMCON:105:1,2010-11-13T13:00:00Z,29.1874,-90.6654,19.9,11111222 
LUMCON,ioos:station:LUMCON:105:1,2010-11-13T14:00:00Z,29.1874,-90.6654,20.4,1111122 
LUMCON,ioos:station:LUMCON:105:1,2010-11-13T15:00:00Z,29.1874,-90.6654,20.7,1111122 
LUMCON,ioos:station:LUMCON:105:1,2010-11-13T16:00:00Z,29.1874,-90.6654,21.0,1111122 
LUMCON,ioos:station:LUMCON:105:1,2010-11-13T17:00:00Z,29.1874,-90.6654,21.1,1111122 
LUMCON,ioos:station:LUMCON:105:1,2010-11-13T18:00:00Z,29.1874,-90.6654,21.4,1111122 
LUMCON,ioos:station:LUMCON:105:1,2010-11-13T19:00:00Z,29.1874,-90.6654,21.5,1111122 